Regional Weather Roundup
Issued by NWS

Home | Current Version | Previous Version | Text Only | Print | Product List | Glossary Off
Versions: 1 2 3 4 5 6 7 8 9 10 11 12 13 14 15 16 17 18 19 20 21 22 23 24 25 26 27 28 29 30 31 32 33 34 35 36 37 38 39 40 41 42 43 44 45 46 47 48 49 50

000
ASUS43 KBIS 282231
RWRND
NORTH DAKOTA REGIONAL WEATHER ROUNDUP
NATIONAL WEATHER SERVICE EASTERN NORTH DAKOTA/GRAND FORKS ND
500 PM CDT SUN MAY 28 2017

  NOTE: "FAIR" INDICATES FEW OR NO CLOUDS BELOW 12,000 FEET WITH NO
  SIGNIFICANT WEATHER AND/OR OBSTRUCTIONS TO VISIBILITY.

NDZ001>003-009>011-017-282300-
...NORTHWEST NORTH DAKOTA...

CITY           SKY/WX    TMP DP  RH WIND       PRES   REMARKS
WILLISTON      PTSUNNY   70  33  25 NW25G33   29.99S
MINOT          CLOUDY    66  39  37 NW28      29.88S
MINOT AFB      FAIR      65  40  40 N30G41    29.87S
$$

NDZ018>021-031>035-040>046-282300-
...SOUTHWEST NORTH DAKOTA...

CITY           SKY/WX    TMP DP  RH WIND       PRES   REMARKS
BISMARCK       FAIR      73  34  23 NW23G45   29.86R
DICKINSON      FAIR      70  28  21 NW25G40   29.94R
GARRISON         N/A     66  36  32 N38G46    29.89R
HETTINGER      FAIR      73  33  23 NW33G40   29.96R
$$

NDZ004>008-012>016-024-026-027-054-282300-
...NORTHEAST NORTH DAKOTA...

CITY           SKY/WX    TMP DP  RH WIND       PRES   REMARKS
GRAND FORKS    PTSUNNY   62  50  64 N12       29.71F
GRAND FORKS AF PTSUNNY   59  46  63 N15       29.74R
DEVILS LAKE    CLOUDY    58  44  60 NW25G37   29.80R
$$

NDZ022-023-025-028>030-036>039-047>053-282300-
...SOUTHEAST NORTH DAKOTA...

CITY           SKY/WX    TMP DP  RH WIND       PRES   REMARKS
JAMESTOWN      LGT RAIN  56  46  69 NW28G40   29.81R
FARGO          PTSUNNY   65  43  44 W21       29.74F
WAHPETON       FAIR      61  37  41 W18G28    29.79R
$$




USA.gov is the U.S. government's official web portal to all federal, state and local government web resources and services.